CW2074 Weather Reports


Display with metric or nautical units.
time (UTC)temp
F
wind
direction
speed
MPH
gust
MPH
rain 1hr
in
rain 24hr
in
rain mn
in
humidity
%
barometer
mb
20180622235818 72 81 0.0 3.0 0.55 0.73 0.57 91 1009.9
20180622234248 75 308 0.0 6.0 0.02 0.20 0.05 86 1009.4
20180622232544 77 199 0.0 0.0 0.00 0.18 0.03 78 1008.2
20180622230907 78 199 0.0 1.0 0.00 0.18 0.03 77 1007.7
20180622225302 78 116 0.0 2.0 0.00 0.23 0.03 75 1007.3
20180622223645 80 215 0.0 1.0 0.00 0.23 0.03 74 1007.4
20180622222024 80 218 0.0 3.0 0.00 0.23 0.03 76 1007.5
20180622220359 82 167 0.0 4.0 0.00 0.23 0.03 78 1007.1
20180622214818 85 137 0.0 6.0 0.00 0.23 0.03 73 1007.0
20180622213315 87 220 1.0 4.0 0.00 0.23 0.03 63 1006.8
20180622211816 88 234 0.0 4.0 0.00 0.23 0.03 62 1006.7
20180622210310 89 121 0.0 4.0 0.00 0.23 0.03 58 1007.0
20180622204815 90 167 0.0 3.0 0.00 0.23 0.03 56 1007.1
20180622203309 90 301 1.0 4.0 0.00 0.23 0.03 55 1007.1
20180622201806 91 169 1.0 5.0 0.00 0.23 0.03 55 1007.4
20180622200309 91 136 1.0 6.0 0.00 0.23 0.03 56 1007.7
20180622194805 91 200 0.0 3.0 0.00 0.23 0.03 60 1007.6
20180622193303 91 163 1.0 5.0 0.00 0.23 0.03 56 1007.8
20180622192004 91 198 0.0 5.0 0.00 0.23 0.03 59 1008.0
20180622190344 90 144 0.0 7.0 0.00 0.23 0.03 58 1008.0
20180622184759 90 113 0.0 4.0 0.00 0.23 0.03 63 1008.3
20180622183123 89 134 1.0 5.0 0.00 0.23 0.03 59 1008.6
20180622181505 90 160 1.0 6.0 0.00 0.23 0.03 61 1008.8
20180622175837 89 328 1.0 4.0 0.00 0.23 0.03 63 1009.0
20180622174234 89 200 2.0 7.0 0.00 0.23 0.03 60 1009.0
20180622172620 88 261 1.0 7.0 0.00 0.23 0.03 63 1009.2
20180622170902 88 309 1.0 5.0 0.00 0.23 0.03 63 1009.1
20180622165241 87 136 1.0 4.0 0.00 0.23 0.03 62 1009.2
20180622163609 87 169 0.0 5.0 0.00 0.23 0.03 66 1009.2
20180622161947 86 140 1.0 4.0 0.00 0.23 0.03 67 1009.3
20180622160307 86 211 0.0 5.0 0.00 0.23 0.03 69 1009.3
20180622154649 85 257 1.0 5.0 0.00 0.23 0.03 67 1009.3
20180622153021 84 201 1.0 5.0 0.00 0.23 0.03 69 1009.3
20180622151353 83 128 1.0 4.0 0.00 0.23 0.03 72 1009.4
20180622145701 83 175 0.0 3.0 0.00 0.23 0.03 76 1009.3
20180622144037 82 144 1.0 4.0 0.00 0.23 0.03 78 1009.2
20180622142339 81 262 0.0 3.0 0.00 0.23 0.03 80 1009.1
20180622140705 79 230 0.0 3.0 0.00 0.23 0.03 84 1009.2
20180622135027 78 111 1.0 3.0 0.00 0.23 0.03 86 1009.2
20180622133443 76 106 0.0 3.0 0.00 0.23 0.03 90 1009.2
20180622131758 75 227 1.0 2.0 0.00 0.23 0.03 92 1009.1
20180622130109 74 130 0.0 3.0 0.00 0.23 0.03 92 1008.8
20180622124458 73 151 0.0 2.0 0.00 0.23 0.03 92 1008.9
20180622122839 73 191 0.0 4.0 0.00 0.23 0.03 92 1008.4
20180622121231 73 232 0.0 4.0 0.00 0.23 0.03 91 1008.3
20180622115506 72 173 0.0 2.0 0.00 0.23 0.03 91 1008.4
20180622113836 72 200 0.0 3.0 0.01 0.23 0.03 91 1008.3
20180622112230 72 224 0.0 2.0 0.01 0.23 0.03 91 1008.5
20180622110614 72 223 0.0 2.0 0.01 0.23 0.03 91 1008.8
20180622105003 72 134 0.0 4.0 0.00 0.22 0.00 91 1009.1
20180622103456 72 130 0.0 2.0 0.00 0.22 0.00 91 1009.1
20180622101750 72 130 0.0 3.0 0.00 0.22 0.00 90 1009.0
20180622100126 72 196 0.0 1.0 0.00 0.22 0.00 91 1008.5
20180622094511 72 206 0.0 3.0 0.00 0.22 0.00 91 1008.4
20180622092908 72 178 0.0 3.0 0.00 0.22 0.00 91 1008.5
20180622091208 73 227 0.0 5.0 0.00 0.22 0.00 90 1008.4
20180622085544 73 195 0.0 3.0 0.00 0.22 0.00 90 1008.2
20180622083935 73 193 0.0 2.0 0.00 0.22 0.00 90 1008.0
20180622082230 73 157 0.0 2.0 0.00 0.22 0.00 90 1008.1
20180622080628 73 207 0.0 2.0 0.00 0.22 0.00 90 1007.9
20180622075023 73 173 0.0 0.0 0.00 0.22 0.00 90 1007.9
20180622073319 73 173 0.0 0.0 0.00 0.22 0.00 90 1007.8
20180622071718 72 173 0.0 0.0 0.00 0.22 0.00 91 1007.9
20180622070050 72 173 0.0 0.0 0.00 0.22 0.00 91 1007.7
20180622064356 72 205 0.0 0.0 0.00 0.22 0.00 91 1007.7
20180622062727 72 205 0.0 0.0 0.00 0.22 0.00 91 1007.6
20180622061113 72 205 0.0 0.0 0.00 0.22 0.00 91 1007.7
20180622055522 72 205 0.0 0.0 0.00 0.22 0.00 91 1007.7
20180622053802 73 205 0.0 0.0 0.00 0.22 0.00 91 1008.0
20180622052124 73 205 0.0 0.0 0.00 0.22 0.00 91 1008.1
20180622050458 73 205 0.0 0.0 0.00 0.22 0.00 91 1008.4
20180622044833 73 204 0.0 0.0 0.00 0.22 0.00 91 1008.4
20180622043222 73 204 0.0 0.0 0.00 0.22 0.00 91 1008.4
20180622041538 73 204 0.0 0.0 0.00 0.22 0.00 91 1008.5
20180622035933 74 204 0.0 0.0 0.00 0.22 0.22 91 1008.7
20180622034314 74 204 0.0 0.0 0.00 0.22 0.22 91 1008.9
20180622032610 74 204 0.0 0.0 0.00 0.22 0.22 91 1009.0
20180622030956 74 204 0.0 0.0 0.00 0.22 0.22 91 1009.0
20180622025352 74 193 0.0 0.0 0.00 0.22 0.22 91 1009.1
20180622023734 74 192 0.0 0.0 0.00 0.22 0.22 91 1009.1
20180622022020 74 192 0.0 0.0 0.00 0.22 0.22 91 1008.9
20180622020431 74 192 0.0 0.0 0.00 0.22 0.22 91 1008.8
20180622014827 74 192 0.0 0.0 0.00 0.22 0.22 91 1008.7
20180622013111 74 192 0.0 0.0 0.00 0.22 0.22 91 1008.6
20180622011440 74 192 0.0 0.0 0.00 0.22 0.22 92 1008.5
20180622005842 75 192 0.0 0.0 0.00 0.22 0.22 92 1008.5
20180622004224 75 192 0.0 0.0 0.00 0.22 0.22 92 1008.5
20180622002514 75 192 0.0 0.0 0.01 0.22 0.22 92 1008.5